User: anonymous   Login
Location: Unnamed
(42.1164°N, 2.7652°E)
Time: 08:08:04
(UTC+02:00)
Language:

DIWATA 2B (PO-101) - Orbit

View from above orbital plane
View from above orbital plane
View from above satellite
View from above satellite

Ground track
Ground track

The orbit data is extracted from the following two-line orbital elements,

1 43678U 18084H   21298.84784625  .00000313  00000-0  36760-4 0  9998
2 43678  97.9407  64.9311 0009491 349.0086  11.0944 14.91813588162874
Epoch (UTC): 25 October 2021 20:20:53
Eccentricity: 0.0009491
inclination: 97.9407°
perigee height: 585 km
apogee height: 599 km
right ascension of ascending node: 64.9311°
argument of perigee: 349.0086°
revolutions per day: 14.91813588
mean anomaly at epoch: 11.0944°
orbit number at epoch: 16287

The dashed part of the orbit path shows where the satellite is in the earth's shadow,  

DLR